sat.trackr.live / text

‹ back to catalog

STARLINK-3827

NORAD 52370 · 2022-045AR

PAYLOAD ACTIVE UNKNOWN

§ Identity

Operator
Country
US
Launch date
2022-04-29
Launch site
AFETR
Launch vehicle
Mass (kg)
RCS (m²)

Purposes: comms

External: N2YO · Heavens-Above · Gunter

§ Orbital elements

Epoch: 2026-09-20T01:43:14.327040Z

Period
93.90 min
Inclination
53.1623°
Eccentricity
0.0001085
Mean motion
15.33534302 rev/d
Perigee alt
464.5 km
Apogee alt
466.0 km
Semi-major
6,843.4 km
B*
1.1651e-4
RAAN
27.6403°
Arg perigee
88.4536°
Mean anomaly
271.6590°
Rev number
24,538

§ Raw data

STARLINK-38271 52370U 22045AR  26263.07169360  .00003459  00000+0  11651-3 0  99982 52370  53.1623  27.6403 0001085  88.4536 271.6590 15.33534302245380

JSON: /api/v1/satellites/52370 · /tle

For live sub-satellite position, see the globe view (requires WebGL).

§ Visibility from observer

Set your observer location to see the next 7 days of passes ≥ 10°. The values pass through the URL so the page stays shareable.

No JS? Fill the form by hand. The geolocation button needs JavaScript.